| time (UTC) | temp F | wind direction | speed MPH | gust MPH | rain 1hr in | rain 24hr in | rain mn in | humidity % | barometer mb |
| 20260503231515 | 79 | 192 | 2.0 | 5.0 | 0.00 | 0.00 | 0.00 | 41 | 1016.5 |
| 20260503230055 | 78 | 0 | 0.0 | 2.0 | 0.00 | 0.00 | 0.00 | 32 | 1016.7 |
| 20260503224555 | 78 | 0 | 0.0 | 1.0 | 0.00 | 0.00 | 0.00 | 38 | 1016.7 |
| 20260503224512 | 78 | 273 | 0.0 | 1.0 | 0.00 | 0.00 | 0.00 | 46 | 1016.6 |
| 20260503223057 | 78 | 0 | 0.0 | 4.0 | 0.00 | 0.00 | 0.00 | 30 | 1016.8 |
| 20260503223011 | 78 | 273 | 0.0 | 4.0 | 0.00 | 0.00 | 0.00 | 42 | 1016.8 |
| 20260503221600 | 79 | 202 | 0.0 | 8.0 | 0.00 | 0.00 | 0.00 | 30 | 1016.9 |
| 20260503221509 | 79 | 202 | 0.0 | 8.0 | 0.00 | 0.00 | 0.00 | 41 | 1017.0 |
| 20260503220101 | 79 | 0 | 3.0 | 7.0 | 0.00 | 0.00 | 0.00 | 28 | 1017.0 |
| 20260503220009 | 79 | 171 | 2.0 | 6.0 | 0.00 | 0.00 | 0.00 | 42 | 1017.0 |
| 20260503214553 | 79 | 201 | 4.0 | 9.0 | 0.00 | 0.00 | 0.00 | 29 | 1017.1 |
| 20260503214507 | 79 | 200 | 4.0 | 9.0 | 0.00 | 0.00 | 0.00 | 40 | 1017.3 |
| 20260503213052 | 79 | 267 | 0.0 | 7.0 | 0.00 | 0.00 | 0.00 | 31 | 1017.4 |
| 20260503213007 | 79 | 237 | 0.0 | 7.0 | 0.00 | 0.00 | 0.00 | 42 | 1017.5 |
| 20260503211610 | 79 | 236 | 2.0 | 7.0 | 0.00 | 0.00 | 0.00 | 30 | 1017.7 |
| 20260503211503 | 79 | 211 | 2.0 | 6.0 | 0.00 | 0.00 | 0.00 | 42 | 1017.8 |
| 20260503210100 | 77 | 291 | 2.0 | 7.0 | 0.00 | 0.00 | 0.00 | 42 | 1018.1 |
| 20260503210056 | 77 | 0 | 1.0 | 7.0 | 0.00 | 0.00 | 0.00 | 31 | 1017.9 |
| 20260503204559 | 78 | 265 | 1.0 | 6.0 | 0.00 | 0.00 | 0.00 | 42 | 1018.2 |
| 20260503204557 | 78 | 265 | 2.0 | 7.0 | 0.00 | 0.00 | 0.00 | 31 | 1018.0 |
| 20260503203107 | 79 | 66 | 0.0 | 3.0 | 0.00 | 0.00 | 0.00 | 31 | 1018.3 |
| 20260503203056 | 79 | 66 | 1.0 | 3.0 | 0.00 | 0.00 | 0.00 | 42 | 1018.5 |
| 20260503201557 | 79 | 167 | 3.0 | 7.0 | 0.00 | 0.00 | 0.00 | 31 | 1018.7 |
| 20260503201553 | 79 | 147 | 3.0 | 7.0 | 0.00 | 0.00 | 0.00 | 43 | 1018.8 |
| 20260503200051 | 79 | 209 | 2.0 | 5.0 | 0.00 | 0.00 | 0.00 | 45 | 1019.0 |
| 20260503194601 | 78 | 247 | 3.0 | 9.0 | 0.00 | 0.00 | 0.00 | 33 | 1019.0 |
| 20260503194550 | 78 | 247 | 2.0 | 9.0 | 0.00 | 0.00 | 0.00 | 44 | 1019.1 |
| 20260503193054 | 77 | 355 | 0.0 | 8.0 | 0.00 | 0.00 | 0.00 | 45 | 1019.3 |
| 20260503191554 | 76 | 203 | 1.0 | 10.0 | 0.00 | 0.00 | 0.00 | 34 | 1019.5 |
| 20260503191544 | 76 | 103 | 1.0 | 5.0 | 0.00 | 0.00 | 0.00 | 45 | 1019.5 |
| 20260503190056 | 77 | 323 | 3.0 | 11.0 | 0.00 | 0.00 | 0.00 | 33 | 1019.7 |
| 20260503190049 | 77 | 323 | 2.0 | 11.0 | 0.00 | 0.00 | 0.00 | 45 | 1019.7 |
| 20260503184555 | 77 | 273 | 3.0 | 10.0 | 0.00 | 0.00 | 0.00 | 45 | 1020.1 |
| 20260503184553 | 77 | 273 | 3.0 | 10.0 | 0.00 | 0.00 | 0.00 | 33 | 1019.9 |
| 20260503183053 | 77 | 319 | 3.0 | 8.0 | 0.00 | 0.00 | 0.00 | 33 | 1020.1 |
| 20260503183041 | 77 | 319 | 2.0 | 7.0 | 0.00 | 0.00 | 0.00 | 44 | 1020.4 |
| 20260503181604 | 77 | 322 | 2.0 | 8.0 | 0.00 | 0.00 | 0.00 | 35 | 1020.3 |
| 20260503181540 | 77 | 323 | 2.0 | 6.0 | 0.00 | 0.00 | 0.00 | 47 | 1020.6 |
| 20260503180052 | 76 | 220 | 4.0 | 11.0 | 0.00 | 0.00 | 0.00 | 36 | 1020.4 |
| 20260503180039 | 76 | 219 | 4.0 | 11.0 | 0.00 | 0.00 | 0.00 | 48 | 1020.9 |
| 20260503174558 | 76 | 215 | 3.0 | 11.0 | 0.00 | 0.00 | 0.00 | 45 | 1020.9 |
| 20260503174554 | 76 | 215 | 3.0 | 12.0 | 0.00 | 0.00 | 0.00 | 34 | 1020.6 |
| 20260503173059 | 76 | 201 | 2.0 | 9.0 | 0.00 | 0.00 | 0.00 | 37 | 1021.0 |
| 20260503173040 | 76 | 186 | 2.0 | 9.0 | 0.00 | 0.00 | 0.00 | 48 | 1021.2 |
| 20260503171552 | 75 | 346 | 4.0 | 10.0 | 0.00 | 0.00 | 0.00 | 41 | 1021.3 |
| 20260503171533 | 75 | 346 | 3.0 | 9.0 | 0.00 | 0.00 | 0.00 | 52 | 1021.5 |
| 20260503081553 | 47 | 0 | 0.0 | 0.0 | 0.00 | 0.01 | 0.00 | 55 | 1019.2 |
| 20260503081526 | 47 | 89 | 0.0 | 0.0 | 0.00 | 0.01 | 0.00 | 66 | 1019.6 |
| 20260503071603 | 48 | 0 | 0.0 | 0.0 | 0.00 | 0.01 | 0.00 | 56 | 1019.4 |
| 20260503071513 | 48 | 89 | 0.0 | 0.0 | 0.00 | 0.01 | 0.00 | 68 | 1019.7 |
| 20260503070105 | 48 | 0 | 0.0 | 0.0 | 0.00 | 0.01 | 0.00 | 58 | 1019.5 |
| 20260503060111 | 50 | 0 | 0.0 | 0.0 | 0.00 | 0.01 | 0.00 | 59 | 1019.3 |
| 20260503054610 | 50 | 0 | 0.0 | 0.0 | 0.00 | 0.01 | 0.00 | 58 | 1019.4 |
| 20260503054559 | 50 | 89 | 0.0 | 0.0 | 0.00 | 0.01 | 0.00 | 70 | 1019.6 |
| 20260503053059 | 50 | 0 | 0.0 | 0.0 | 0.00 | 0.01 | 0.00 | 58 | 1019.4 |
| 20260503051557 | 51 | 0 | 0.0 | 0.0 | 0.00 | 0.01 | 0.00 | 59 | 1019.4 |
| 20260503050055 | 51 | 0 | 0.0 | 0.0 | 0.00 | 0.01 | 0.00 | 58 | 1019.6 |
| 20260503050053 | 51 | 89 | 0.0 | 0.0 | 0.00 | 0.01 | 0.00 | 70 | 1019.6 |
| 20260503044559 | 52 | 0 | 0.0 | 0.0 | 0.00 | 0.01 | 0.01 | 59 | 1019.5 |
| 20260503044555 | 52 | 90 | 0.0 | 0.0 | 0.00 | 0.01 | 0.01 | 71 | 1019.5 |
| 20260503043112 | 52 | 0 | 0.0 | 0.0 | 0.00 | 0.01 | 0.01 | 59 | 1019.5 |
| 20260503043052 | 52 | 89 | 0.0 | 0.0 | 0.00 | 0.01 | 0.01 | 70 | 1019.6 |
| 20260503041559 | 52 | 0 | 0.0 | 0.0 | 0.00 | 0.01 | 0.01 | 58 | 1019.3 |
| 20260503041552 | 52 | 89 | 0.0 | 0.0 | 0.00 | 0.01 | 0.01 | 70 | 1019.5 |
| 20260503040109 | 53 | 0 | 0.0 | 0.0 | 0.00 | 0.01 | 0.01 | 59 | 1019.6 |
| 20260503040051 | 53 | 89 | 0.0 | 0.0 | 0.00 | 0.01 | 0.01 | 70 | 1019.6 |
| 20260503034606 | 53 | 89 | 0.0 | 0.0 | 0.00 | 0.01 | 0.01 | 69 | 1019.6 |
| 20260503034551 | 53 | 0 | 0.0 | 0.0 | 0.00 | 0.01 | 0.01 | 58 | 1019.4 |
| 20260503033109 | 54 | 0 | 0.0 | 0.0 | 0.00 | 0.01 | 0.01 | 58 | 1019.3 |
| 20260503033055 | 54 | 89 | 0.0 | 0.0 | 0.00 | 0.01 | 0.01 | 70 | 1019.4 |
| 20260503031555 | 55 | 0 | 0.0 | 0.0 | 0.00 | 0.01 | 0.01 | 57 | 1019.2 |
| 20260503031553 | 55 | 89 | 0.0 | 0.0 | 0.00 | 0.01 | 0.01 | 68 | 1019.3 |
| 20260503030052 | 55 | 0 | 0.0 | 0.0 | 0.00 | 0.01 | 0.01 | 58 | 1019.3 |
| 20260503030049 | 55 | 89 | 0.0 | 0.0 | 0.00 | 0.01 | 0.01 | 70 | 1019.2 |
| 20260503024649 | 56 | 89 | 0.0 | 2.0 | 0.00 | 0.01 | 0.01 | 70 | 1019.1 |
| 20260503024554 | 56 | 0 | 0.0 | 2.0 | 0.00 | 0.01 | 0.01 | 58 | 1019.0 |
| 20260503023101 | 57 | 0 | 0.0 | 0.0 | 0.00 | 0.01 | 0.01 | 60 | 1019.0 |
| 20260503023047 | 57 | 89 | 0.0 | 0.0 | 0.00 | 0.01 | 0.01 | 71 | 1019.2 |
| 20260503021555 | 57 | 0 | 0.0 | 0.0 | 0.00 | 0.01 | 0.01 | 60 | 1018.7 |
| 20260503021546 | 57 | 89 | 0.0 | 0.0 | 0.00 | 0.01 | 0.01 | 71 | 1018.9 |
| 20260503020057 | 58 | 0 | 0.0 | 1.0 | 0.00 | 0.01 | 0.01 | 58 | 1018.5 |
| 20260503020046 | 58 | 89 | 0.0 | 0.0 | 0.00 | 0.01 | 0.01 | 70 | 1018.6 |
| 20260503014553 | 59 | 76 | 0.0 | 0.0 | 0.00 | 0.03 | 0.01 | 70 | 1018.5 |
| 20260503013105 | 60 | 0 | 0.0 | 2.0 | 0.00 | 0.03 | 0.01 | 56 | 1018.3 |
| 20260503013045 | 60 | 76 | 0.0 | 2.0 | 0.00 | 0.03 | 0.01 | 68 | 1018.4 |
| 20260503011603 | 62 | 0 | 0.0 | 1.0 | 0.00 | 0.03 | 0.01 | 54 | 1018.2 |
| 20260503011547 | 63 | 76 | 0.0 | 1.0 | 0.00 | 0.03 | 0.01 | 65 | 1018.1 |
| 20260503010056 | 65 | 0 | 0.0 | 1.0 | 0.00 | 0.03 | 0.01 | 46 | 1018.0 |
| 20260503010043 | 65 | 76 | 0.0 | 1.0 | 0.00 | 0.03 | 0.01 | 58 | 1018.0 |
| 20260503004615 | 67 | 0 | 0.0 | 0.0 | 0.00 | 0.03 | 0.01 | 44 | 1017.7 |
| 20260503004543 | 67 | 360 | 0.0 | 0.0 | 0.00 | 0.03 | 0.01 | 56 | 1017.8 |
| 20260503003059 | 69 | 0 | 0.0 | 0.0 | 0.00 | 0.03 | 0.01 | 42 | 1017.6 |
| 20260503003051 | 69 | 360 | 0.0 | 0.0 | 0.00 | 0.03 | 0.01 | 53 | 1017.8 |
| 20260503001602 | 72 | 348 | 0.0 | 0.0 | 0.00 | 0.03 | 0.01 | 48 | 1017.7 |
| 20260503001557 | 72 | 0 | 0.0 | 0.0 | 0.00 | 0.03 | 0.01 | 37 | 1017.6 |
| 20260503000107 | 72 | 0 | 0.0 | 3.0 | 0.00 | 0.03 | 0.01 | 38 | 1017.6 |
| 20260503000047 | 72 | 348 | 0.0 | 3.0 | 0.00 | 0.03 | 0.01 | 49 | 1017.8 |
| 20260502234553 | 72 | 348 | 0.0 | 4.0 | 0.00 | 0.09 | 0.01 | 38 | 1017.5 |
| 20260502234548 | 72 | 348 | 0.0 | 4.0 | 0.00 | 0.09 | 0.01 | 49 | 1017.7 |
| 20260502233100 | 73 | 320 | 2.0 | 8.0 | 0.00 | 0.09 | 0.01 | 34 | 1017.5 |
| 20260502233040 | 73 | 320 | 1.0 | 8.0 | 0.00 | 0.09 | 0.01 | 46 | 1017.7 |
| 20260502231555 | 72 | 355 | 2.0 | 8.0 | 0.00 | 0.09 | 0.01 | 34 | 1017.5 |
| 20260502231540 | 72 | 355 | 2.0 | 8.0 | 0.00 | 0.09 | 0.01 | 45 | 1017.6 |